Weather History for Shreveport Downtown, LA

Change the Weather History Date:

Thursday, August 29, 2013

  Actual Average (KSHV) Record (KSHV)
Temperature  
Mean Temperature 86 °F 82 °F  
Max Temperature 99 °F 93 °F 104 °F (1884)
Min Temperature 75 °F 71 °F 56 °F (1986)
Degree Days  
Heating Degree Days 0 0  
Month to date heating degree days 0  
Since 1 June heating degree days 0  
Since 1 July heating degree days 0  
Cooling Degree Days 21 17  
Month to date cooling degree days 531  
Year to date cooling degree days 1932  
Since 1 June cooling degree days 1534  
Growing Degree Days 36 (Base 50)    
Moisture  
Dew Point 65 °F    
Average Humidity 52    
Maximum Humidity 79    
Minimum Humidity 31    
Precipitation  
Precipitation 0.00 in 0.08 in 3.67 in (1911)
Month to date precipitation 2.56  
Year to date precipitation 33.82  
Snow  
Snow 0.00 in - - ()
Month to date snowfall  
Since 1 June snowfall  
Since 1 July snowfall  
Snow Depth -    
Sea Level Pressure  
Sea Level Pressure 30.01 in    
Wind  
Wind Speed 5 mph (ESE)    
Max Wind Speed 10 mph    
Max Gust Speed -    
Visibility 10 miles    
Events      
T = Trace of Precipitation, MM = Missing Value Source: NWS Daily Summary

Daily Weather History Graph

Daily Weather History Graph

Search for Another Location

Airport:

Trip Planner

Search our weather history database for the weather conditions in past years. The results will help you decide how hot, cold, wet, or windy it might be!

Date:

Astronomy

Aug. 29, 2013 Rise Set
Actual Time 6:48 AM CDT 7:42 PM CDT
Civil Twilight 6:22 AM CDT 8:08 PM CDT
Nautical Twilight 5:53 AM CDT 8:37 PM CDT
Astronomical Twilight 5:22 AM CDT 9:08 PM CDT
Moon 12:49 AM CDT (8/29) 3:02 PM CDT (8/29)
Length of Visible Light 13h 45m
Length of Day
12h 54m
Last Quarter, 38% of the Moon is Illuminated
Aug 29
Last Quarter
Sep 5
New
Sep 12
First Quarter
Sep 19
Full
Sep 26
Last Quarter

Hourly Weather History & Observations

Time (CDT) Temp. Heat Index Dew Point Humidity Pressure Visibility Wind Dir Wind Speed Gust Speed Precip Events Conditions
12:53 AM 81.0 °F 82.7 °F 64.9 °F 58% 30.03 in 10.0 mi SE 10.4 mph - N/A   Clear
1:53 AM 80.1 °F 82.1 °F 66.0 °F 62% 30.04 in 10.0 mi SE 6.9 mph - N/A   Clear
2:53 AM 79.0 °F - 66.0 °F 64% 30.04 in 10.0 mi SSE 8.1 mph - N/A   Clear
3:53 AM 78.1 °F - 66.9 °F 68% 30.03 in 10.0 mi SE 5.8 mph - N/A   Overcast
4:53 AM 77.0 °F - 66.9 °F 71% 30.03 in 10.0 mi Calm Calm - N/A   Clear
5:53 AM 75.9 °F - 66.9 °F 74% 30.04 in 10.0 mi Calm Calm - N/A   Scattered Clouds
6:53 AM 75.0 °F - 68.0 °F 79% 30.05 in 9.0 mi Calm Calm - N/A   Clear
7:53 AM 77.0 °F - 69.1 °F 76% 30.06 in 8.0 mi Calm Calm - N/A   Clear
8:53 AM 82.0 °F 85.9 °F 70.0 °F 67% 30.06 in 9.0 mi Calm Calm - N/A   Partly Cloudy
9:53 AM 84.9 °F 89.4 °F 70.0 °F 61% 30.07 in 10.0 mi Calm Calm - N/A   Clear
10:53 AM 90.0 °F 94.5 °F 69.1 °F 50% 30.07 in 10.0 mi Calm Calm - N/A   Clear
11:53 AM 93.0 °F 95.0 °F 64.9 °F 39% 30.05 in 10.0 mi North 4.6 mph - N/A   Clear
12:53 PM 93.9 °F 96.1 °F 64.9 °F 38% 30.03 in 10.0 mi NNE 5.8 mph - N/A   Partly Cloudy
1:53 PM 95.0 °F 97.0 °F 64.0 °F 36% 30.01 in 10.0 mi ENE 9.2 mph - N/A   Scattered Clouds
2:53 PM 96.1 °F 97.3 °F 63.0 °F 33% 29.99 in 10.0 mi Variable 4.6 mph - N/A   Partly Cloudy
3:53 PM 96.1 °F 96.9 °F 62.1 °F 32% 29.97 in 10.0 mi NNE 5.8 mph - N/A   Scattered Clouds
4:53 PM 97.0 °F 97.8 °F 62.1 °F 31% 29.96 in 10.0 mi ESE 3.5 mph - N/A   Scattered Clouds
5:53 PM 96.1 °F 96.9 °F 62.1 °F 32% 29.95 in 10.0 mi ESE 4.6 mph - N/A   Clear
6:53 PM 93.0 °F 93.8 °F 62.1 °F 36% 29.95 in 10.0 mi East 5.8 mph - N/A   Clear
7:53 PM 88.0 °F 88.7 °F 63.0 °F 43% 29.96 in 10.0 mi East 4.6 mph - N/A   Clear
8:53 PM 86.0 °F 86.8 °F 63.0 °F 46% 29.97 in 10.0 mi ESE 4.6 mph - N/A   Clear
9:53 PM 84.9 °F 85.9 °F 63.0 °F 48% 29.98 in 10.0 mi SE 4.6 mph - N/A   Clear
10:53 PM 84.0 °F 85.4 °F 64.0 °F 51% 29.99 in 10.0 mi SE 5.8 mph - N/A   Clear
11:53 PM 82.0 °F 83.8 °F 64.9 °F 56% 29.99 in 10.0 mi SSE 5.8 mph - N/A   Clear